owner,sensor,date,latitude,longitude,sea_surface_height_above_sea_level,qcFlag 
COMPS,ioos:station:USF.COMPS:ANC:1,2009-10-01T00:00:00Z,28.1930,-82.7890,-0.036,1111122 
COMPS,ioos:station:USF.COMPS:ANC:1,2009-10-01T00:06:00Z,28.1930,-82.7890,-0.018,1111122 
COMPS,ioos:station:USF.COMPS:ANC:1,2009-10-01T00:12:00Z,28.1930,-82.7890,-0.001,1111122 
COMPS,ioos:station:USF.COMPS:ANC:1,2009-10-01T00:18:00Z,28.1930,-82.7890,0.012,1111122 
COMPS,ioos:station:USF.COMPS:ANC:1,2009-10-01T00:24:00Z,28.1930,-82.7890,0.024,1111122 
COMPS,ioos:station:USF.COMPS:ANC:1,2009-10-01T00:30:00Z,28.1930,-82.7890,0.037,1111122 
COMPS,ioos:station:USF.COMPS:ANC:1,2009-10-01T00:36:00Z,28.1930,-82.7890,0.057,1111122 
COMPS,ioos:station:USF.COMPS:ANC:1,2009-10-01T00:42:00Z,28.1930,-82.7890,0.077,1111122 
COMPS,ioos:station:USF.COMPS:ANC:1,2009-10-01T00:48:00Z,28.1930,-82.7890,0.092,1111122 
COMPS,ioos:station:USF.COMPS:ANC:1,2009-10-01T00:54:00Z,28.1930,-82.7890,0.094,1111122 
COMPS,ioos:station:USF.COMPS:ANC:1,2009-10-01T01:00:00Z,28.1930,-82.7890,0.106,1111122 
COMPS,ioos:station:USF.COMPS:ANC:1,2009-10-01T01:06:00Z,28.1930,-82.7890,0.121,1111122 
COMPS,ioos:station:USF.COMPS:ANC:1,2009-10-01T01:12:00Z,28.1930,-82.7890,0.136,1111122 
COMPS,ioos:station:USF.COMPS:ANC:1,2009-10-01T01:18:00Z,28.1930,-82.7890,0.148,1111122 
COMPS,ioos:station:USF.COMPS:ANC:1,2009-10-01T01:24:00Z,28.1930,-82.7890,0.162,1111122 
COMPS,ioos:station:USF.COMPS:ANC:1,2009-10-01T01:30:00Z,28.1930,-82.7890,0.177,1111122 
COMPS,ioos:station:USF.COMPS:ANC:1,2009-10-01T01:36:00Z,28.1930,-82.7890,0.189,1111122 
COMPS,ioos:station:USF.COMPS:ANC:1,2009-10-01T01:42:00Z,28.1930,-82.7890,0.191,1111122 
COMPS,ioos:station:USF.COMPS:ANC:1,2009-10-01T01:48:00Z,28.1930,-82.7890,0.193,1111122 
COMPS,ioos:station:USF.COMPS:ANC:1,2009-10-01T01:54:00Z,28.1930,-82.7890,0.208,1111122 
COMPS,ioos:station:USF.COMPS:ANC:1,2009-10-01T02:00:00Z,28.1930,-82.7890,0.218,1111122 
COMPS,ioos:station:USF.COMPS:ANC:1,2009-10-01T02:06:00Z,28.1930,-82.7890,0.23,1111122 
COMPS,ioos:station:USF.COMPS:ANC:1,2009-10-01T02:12:00Z,28.1930,-82.7890,0.253,1111122 
COMPS,ioos:station:USF.COMPS:ANC:1,2009-10-01T02:18:00Z,28.1930,-82.7890,0.272,1111122 
COMPS,ioos:station:USF.COMPS:ANC:1,2009-10-01T02:24:00Z,28.1930,-82.7890,0.29,1111122 
COMPS,ioos:station:USF.COMPS:ANC:1,2009-10-01T02:30:00Z,28.1930,-82.7890,0.304,1111122 
COMPS,ioos:station:USF.COMPS:ANC:1,2009-10-01T02:36:00Z,28.1930,-82.7890,0.315,1111122 
COMPS,ioos:station:USF.COMPS:ANC:1,2009-10-01T02:42:00Z,28.1930,-82.7890,0.324,1111122 
COMPS,ioos:station:USF.COMPS:ANC:1,2009-10-01T02:48:00Z,28.1930,-82.7890,0.334,1111122 
COMPS,ioos:station:USF.COMPS:ANC:1,2009-10-01T02:54:00Z,28.1930,-82.7890,0.344,1111122 
COMPS,ioos:station:USF.COMPS:ANC:1,2009-10-01T03:00:00Z,28.1930,-82.7890,0.347,1111122 
COMPS,ioos:station:USF.COMPS:ANC:1,2009-10-01T03:06:00Z,28.1930,-82.7890,0.35,1111122 
COMPS,ioos:station:USF.COMPS:ANC:1,2009-10-01T03:12:00Z,28.1930,-82.7890,0.356,1111122 
COMPS,ioos:station:USF.COMPS:ANC:1,2009-10-01T03:18:00Z,28.1930,-82.7890,0.357,1111122 
COMPS,ioos:station:USF.COMPS:ANC:1,2009-10-01T03:24:00Z,28.1930,-82.7890,0.357,1111122 
COMPS,ioos:station:USF.COMPS:ANC:1,2009-10-01T03:30:00Z,28.1930,-82.7890,0.362,1111122 
COMPS,ioos:station:USF.COMPS:ANC:1,2009-10-01T03:36:00Z,28.1930,-82.7890,0.364,1111122 
COMPS,ioos:station:USF.COMPS:ANC:1,2009-10-01T03:42:00Z,28.1930,-82.7890,0.363,1111122 
COMPS,ioos:station:USF.COMPS:ANC:1,2009-10-01T03:48:00Z,28.1930,-82.7890,0.365,1111122 
COMPS,ioos:station:USF.COMPS:ANC:1,2009-10-01T03:54:00Z,28.1930,-82.7890,0.366,1111122 
COMPS,ioos:station:USF.COMPS:ANC:1,2009-10-01T04:00:00Z,28.1930,-82.7890,0.357,1111122 
COMPS,ioos:station:USF.COMPS:ANC:1,2009-10-01T04:06:00Z,28.1930,-82.7890,0.355,1111122 
COMPS,ioos:station:USF.COMPS:ANC:1,2009-10-01T04:12:00Z,28.1930,-82.7890,0.366,1111122 
COMPS,ioos:station:USF.COMPS:ANC:1,2009-10-01T04:18:00Z,28.1930,-82.7890,0.365,1111122 
COMPS,ioos:station:USF.COMPS:ANC:1,2009-10-01T04:24:00Z,28.1930,-82.7890,0.352,1111122 
COMPS,ioos:station:USF.COMPS:ANC:1,2009-10-01T04:30:00Z,28.1930,-82.7890,0.342,1111122 
COMPS,ioos:station:USF.COMPS:ANC:1,2009-10-01T04:36:00Z,28.1930,-82.7890,0.334,1111122 
COMPS,ioos:station:USF.COMPS:ANC:1,2009-10-01T04:42:00Z,28.1930,-82.7890,0.328,1111122 
COMPS,ioos:station:USF.COMPS:ANC:1,2009-10-01T04:48:00Z,28.1930,-82.7890,0.322,1111122 
COMPS,ioos:station:USF.COMPS:ANC:1,2009-10-01T04:54:00Z,28.1930,-82.7890,0.313,1111122 
COMPS,ioos:station:USF.COMPS:ANC:1,2009-10-01T05:00:00Z,28.1930,-82.7890,0.307,1111122 
COMPS,ioos:station:USF.COMPS:ANC:1,2009-10-01T05:06:00Z,28.1930,-82.7890,0.299,1111122 
COMPS,ioos:station:USF.COMPS:ANC:1,2009-10-01T05:12:00Z,28.1930,-82.7890,0.287,1111122 
COMPS,ioos:station:USF.COMPS:ANC:1,2009-10-01T05:18:00Z,28.1930,-82.7890,0.264,1111122 
COMPS,ioos:station:USF.COMPS:ANC:1,2009-10-01T05:24:00Z,28.1930,-82.7890,0.235,1111122 
COMPS,ioos:station:USF.COMPS:ANC:1,2009-10-01T05:30:00Z,28.1930,-82.7890,0.217,1111122 
COMPS,ioos:station:USF.COMPS:ANC:1,2009-10-01T05:36:00Z,28.1930,-82.7890,0.205,1111122 
COMPS,ioos:station:USF.COMPS:ANC:1,2009-10-01T05:42:00Z,28.1930,-82.7890,0.192,1111122 
COMPS,ioos:station:USF.COMPS:ANC:1,2009-10-01T05:48:00Z,28.1930,-82.7890,0.174,1111122 
COMPS,ioos:station:USF.COMPS:ANC:1,2009-10-01T05:54:00Z,28.1930,-82.7890,0.16,1111122 
COMPS,ioos:station:USF.COMPS:ANC:1,2009-10-01T06:00:00Z,28.1930,-82.7890,0.141,1111122 
COMPS,ioos:station:USF.COMPS:ANC:1,2009-10-01T06:06:00Z,28.1930,-82.7890,0.124,1111122 
COMPS,ioos:station:USF.COMPS:ANC:1,2009-10-01T06:12:00Z,28.1930,-82.7890,0.115,1111122 
COMPS,ioos:station:USF.COMPS:ANC:1,2009-10-01T06:18:00Z,28.1930,-82.7890,0.111,1111122 
COMPS,ioos:station:USF.COMPS:ANC:1,2009-10-01T06:24:00Z,28.1930,-82.7890,0.102,1111122 
COMPS,ioos:station:USF.COMPS:ANC:1,2009-10-01T06:30:00Z,28.1930,-82.7890,0.079,1111122 
COMPS,ioos:station:USF.COMPS:ANC:1,2009-10-01T06:36:00Z,28.1930,-82.7890,0.067,1111122 
COMPS,ioos:station:USF.COMPS:ANC:1,2009-10-01T06:42:00Z,28.1930,-82.7890,0.059,1111122 
COMPS,ioos:station:USF.COMPS:ANC:1,2009-10-01T06:48:00Z,28.1930,-82.7890,0.046,1111122 
COMPS,ioos:station:USF.COMPS:ANC:1,2009-10-01T06:54:00Z,28.1930,-82.7890,0.03,1111122 
COMPS,ioos:station:USF.COMPS:ANC:1,2009-10-01T07:00:00Z,28.1930,-82.7890,0.016,1111122 
COMPS,ioos:station:USF.COMPS:ANC:1,2009-10-01T07:06:00Z,28.1930,-82.7890,0.0,1114422 
COMPS,ioos:station:USF.COMPS:ANC:1,2009-10-01T07:12:00Z,28.1930,-82.7890,-0.013,1111122 
COMPS,ioos:station:USF.COMPS:ANC:1,2009-10-01T07:18:00Z,28.1930,-82.7890,-0.026,1111122 
COMPS,ioos:station:USF.COMPS:ANC:1,2009-10-01T07:24:00Z,28.1930,-82.7890,-0.041,1111122 
COMPS,ioos:station:USF.COMPS:ANC:1,2009-10-01T07:30:00Z,28.1930,-82.7890,-0.057,1111122 
COMPS,ioos:station:USF.COMPS:ANC:1,2009-10-01T07:36:00Z,28.1930,-82.7890,-0.075,1111122 
COMPS,ioos:station:USF.COMPS:ANC:1,2009-10-01T07:42:00Z,28.1930,-82.7890,-0.093,1111122 
COMPS,ioos:station:USF.COMPS:ANC:1,2009-10-01T07:48:00Z,28.1930,-82.7890,-0.11,1111122 
COMPS,ioos:station:USF.COMPS:ANC:1,2009-10-01T07:54:00Z,28.1930,-82.7890,-0.121,1111122 
COMPS,ioos:station:USF.COMPS:ANC:1,2009-10-01T08:00:00Z,28.1930,-82.7890,-0.13,1111122 
COMPS,ioos:station:USF.COMPS:ANC:1,2009-10-01T08:06:00Z,28.1930,-82.7890,-0.139,1111122 
COMPS,ioos:station:USF.COMPS:ANC:1,2009-10-01T08:12:00Z,28.1930,-82.7890,-0.149,1111122 
COMPS,ioos:station:USF.COMPS:ANC:1,2009-10-01T08:18:00Z,28.1930,-82.7890,-0.153,1111122 
COMPS,ioos:station:USF.COMPS:ANC:1,2009-10-01T08:24:00Z,28.1930,-82.7890,-0.166,1111122 
COMPS,ioos:station:USF.COMPS:ANC:1,2009-10-01T08:30:00Z,28.1930,-82.7890,-0.179,1111122 
COMPS,ioos:station:USF.COMPS:ANC:1,2009-10-01T08:36:00Z,28.1930,-82.7890,-0.189,1111122 
COMPS,ioos:station:USF.COMPS:ANC:1,2009-10-01T08:42:00Z,28.1930,-82.7890,-0.193,1111122 
COMPS,ioos:station:USF.COMPS:ANC:1,2009-10-01T08:48:00Z,28.1930,-82.7890,-0.197,1111122 
COMPS,ioos:station:USF.COMPS:ANC:1,2009-10-01T08:54:00Z,28.1930,-82.7890,-0.199,1111122 
COMPS,ioos:station:USF.COMPS:ANC:1,2009-10-01T09:00:00Z,28.1930,-82.7890,-0.191,1111122 
COMPS,ioos:station:USF.COMPS:ANC:1,2009-10-01T09:06:00Z,28.1930,-82.7890,-0.187,1111122 
COMPS,ioos:station:USF.COMPS:ANC:1,2009-10-01T09:12:00Z,28.1930,-82.7890,-0.185,1111122 
COMPS,ioos:station:USF.COMPS:ANC:1,2009-10-01T09:18:00Z,28.1930,-82.7890,-0.186,1111122 
COMPS,ioos:station:USF.COMPS:ANC:1,2009-10-01T09:24:00Z,28.1930,-82.7890,-0.194,1111122 
COMPS,ioos:station:USF.COMPS:ANC:1,2009-10-01T09:30:00Z,28.1930,-82.7890,-0.199,1111122 
COMPS,ioos:station:USF.COMPS:ANC:1,2009-10-01T09:36:00Z,28.1930,-82.7890,-0.192,1111122 
COMPS,ioos:station:USF.COMPS:ANC:1,2009-10-01T09:42:00Z,28.1930,-82.7890,-0.18,1111122 
COMPS,ioos:station:USF.COMPS:ANC:1,2009-10-01T09:48:00Z,28.1930,-82.7890,-0.164,1111122 
COMPS,ioos:station:USF.COMPS:ANC:1,2009-10-01T09:54:00Z,28.1930,-82.7890,-0.149,1111122 
COMPS,ioos:station:USF.COMPS:ANC:1,2009-10-01T10:00:00Z,28.1930,-82.7890,-0.136,1111122 
COMPS,ioos:station:USF.COMPS:ANC:1,2009-10-01T10:06:00Z,28.1930,-82.7890,-0.127,1111122 
COMPS,ioos:station:USF.COMPS:ANC:1,2009-10-01T10:12:00Z,28.1930,-82.7890,-0.118,1111122 
COMPS,ioos:station:USF.COMPS:ANC:1,2009-10-01T10:18:00Z,28.1930,-82.7890,-0.112,1111122 
COMPS,ioos:station:USF.COMPS:ANC:1,2009-10-01T10:24:00Z,28.1930,-82.7890,-0.105,1111122 
COMPS,ioos:station:USF.COMPS:ANC:1,2009-10-01T10:30:00Z,28.1930,-82.7890,-0.088,1111122 
COMPS,ioos:station:USF.COMPS:ANC:1,2009-10-01T10:36:00Z,28.1930,-82.7890,-0.069,1111122 
COMPS,ioos:station:USF.COMPS:ANC:1,2009-10-01T10:42:00Z,28.1930,-82.7890,-0.051,1111122 
COMPS,ioos:station:USF.COMPS:ANC:1,2009-10-01T10:48:00Z,28.1930,-82.7890,-0.031,1111122 
COMPS,ioos:station:USF.COMPS:ANC:1,2009-10-01T10:54:00Z,28.1930,-82.7890,-0.016,1111122 
COMPS,ioos:station:USF.COMPS:ANC:1,2009-10-01T11:00:00Z,28.1930,-82.7890,-0.005,1111122 
COMPS,ioos:station:USF.COMPS:ANC:1,2009-10-01T11:06:00Z,28.1930,-82.7890,0.011,1111122 
COMPS,ioos:station:USF.COMPS:ANC:1,2009-10-01T11:12:00Z,28.1930,-82.7890,0.034,1111122 
COMPS,ioos:station:USF.COMPS:ANC:1,2009-10-01T11:18:00Z,28.1930,-82.7890,0.048,1111122 
COMPS,ioos:station:USF.COMPS:ANC:1,2009-10-01T11:24:00Z,28.1930,-82.7890,0.059,1111122 
COMPS,ioos:station:USF.COMPS:ANC:1,2009-10-01T11:30:00Z,28.1930,-82.7890,0.069,1111122 
COMPS,ioos:station:USF.COMPS:ANC:1,2009-10-01T11:36:00Z,28.1930,-82.7890,0.078,1111122 
COMPS,ioos:station:USF.COMPS:ANC:1,2009-10-01T11:42:00Z,28.1930,-82.7890,0.088,1111122 
COMPS,ioos:station:USF.COMPS:ANC:1,2009-10-01T11:48:00Z,28.1930,-82.7890,0.099,1111122 
COMPS,ioos:station:USF.COMPS:ANC:1,2009-10-01T11:54:00Z,28.1930,-82.7890,0.114,1111122 
COMPS,ioos:station:USF.COMPS:ANC:1,2009-10-01T12:00:00Z,28.1930,-82.7890,0.128,1111122 
COMPS,ioos:station:USF.COMPS:ANC:1,2009-10-01T12:06:00Z,28.1930,-82.7890,0.149,1111122 
COMPS,ioos:station:USF.COMPS:ANC:1,2009-10-01T12:12:00Z,28.1930,-82.7890,0.163,1111122 
COMPS,ioos:station:USF.COMPS:ANC:1,2009-10-01T12:18:00Z,28.1930,-82.7890,0.179,1111122 
COMPS,ioos:station:USF.COMPS:ANC:1,2009-10-01T12:24:00Z,28.1930,-82.7890,0.195,1111122 
COMPS,ioos:station:USF.COMPS:ANC:1,2009-10-01T12:30:00Z,28.1930,-82.7890,0.209,1111122 
COMPS,ioos:station:USF.COMPS:ANC:1,2009-10-01T12:36:00Z,28.1930,-82.7890,0.227,1111122 
COMPS,ioos:station:USF.COMPS:ANC:1,2009-10-01T12:42:00Z,28.1930,-82.7890,0.246,1111122 
COMPS,ioos:station:USF.COMPS:ANC:1,2009-10-01T12:48:00Z,28.1930,-82.7890,0.265,1111122 
COMPS,ioos:station:USF.COMPS:ANC:1,2009-10-01T12:54:00Z,28.1930,-82.7890,0.284,1111122 
COMPS,ioos:station:USF.COMPS:ANC:1,2009-10-01T13:00:00Z,28.1930,-82.7890,0.306,1111122 
COMPS,ioos:station:USF.COMPS:ANC:1,2009-10-01T13:06:00Z,28.1930,-82.7890,0.319,1111122 
COMPS,ioos:station:USF.COMPS:ANC:1,2009-10-01T13:12:00Z,28.1930,-82.7890,0.331,1111122 
COMPS,ioos:station:USF.COMPS:ANC:1,2009-10-01T13:18:00Z,28.1930,-82.7890,0.343,1111122 
COMPS,ioos:station:USF.COMPS:ANC:1,2009-10-01T13:24:00Z,28.1930,-82.7890,0.356,1111122 
COMPS,ioos:station:USF.COMPS:ANC:1,2009-10-01T13:30:00Z,28.1930,-82.7890,0.372,1111122 
COMPS,ioos:station:USF.COMPS:ANC:1,2009-10-01T13:36:00Z,28.1930,-82.7890,0.383,1111122 
COMPS,ioos:station:USF.COMPS:ANC:1,2009-10-01T13:42:00Z,28.1930,-82.7890,0.395,1111122 
COMPS,ioos:station:USF.COMPS:ANC:1,2009-10-01T13:48:00Z,28.1930,-82.7890,0.41,1111122 
COMPS,ioos:station:USF.COMPS:ANC:1,2009-10-01T13:54:00Z,28.1930,-82.7890,0.422,1111122 
COMPS,ioos:station:USF.COMPS:ANC:1,2009-10-01T14:00:00Z,28.1930,-82.7890,0.436,1111122 
COMPS,ioos:station:USF.COMPS:ANC:1,2009-10-01T14:06:00Z,28.1930,-82.7890,0.446,1111122 
COMPS,ioos:station:USF.COMPS:ANC:1,2009-10-01T14:12:00Z,28.1930,-82.7890,0.452,1111122 
COMPS,ioos:station:USF.COMPS:ANC:1,2009-10-01T14:18:00Z,28.1930,-82.7890,0.461,1111122 
COMPS,ioos:station:USF.COMPS:ANC:1,2009-10-01T14:24:00Z,28.1930,-82.7890,0.469,1111122 
COMPS,ioos:station:USF.COMPS:ANC:1,2009-10-01T14:30:00Z,28.1930,-82.7890,0.474,1111122 
COMPS,ioos:station:USF.COMPS:ANC:1,2009-10-01T14:36:00Z,28.1930,-82.7890,0.479,1111122 
COMPS,ioos:station:USF.COMPS:ANC:1,2009-10-01T14:42:00Z,28.1930,-82.7890,0.483,1111122 
COMPS,ioos:station:USF.COMPS:ANC:1,2009-10-01T14:48:00Z,28.1930,-82.7890,0.493,1111122 
COMPS,ioos:station:USF.COMPS:ANC:1,2009-10-01T14:54:00Z,28.1930,-82.7890,0.497,1111122 
COMPS,ioos:station:USF.COMPS:ANC:1,2009-10-01T15:00:00Z,28.1930,-82.7890,0.503,1111122 
COMPS,ioos:station:USF.COMPS:ANC:1,2009-10-01T15:06:00Z,28.1930,-82.7890,0.507,1111122 
COMPS,ioos:station:USF.COMPS:ANC:1,2009-10-01T15:12:00Z,28.1930,-82.7890,0.511,1111122 
COMPS,ioos:station:USF.COMPS:ANC:1,2009-10-01T15:18:00Z,28.1930,-82.7890,0.519,1111122 
COMPS,ioos:station:USF.COMPS:ANC:1,2009-10-01T15:24:00Z,28.1930,-82.7890,0.514,1111122 
COMPS,ioos:station:USF.COMPS:ANC:1,2009-10-01T15:30:00Z,28.1930,-82.7890,0.507,1111122 
COMPS,ioos:station:USF.COMPS:ANC:1,2009-10-01T15:36:00Z,28.1930,-82.7890,0.501,1111122 
COMPS,ioos:station:USF.COMPS:ANC:1,2009-10-01T15:42:00Z,28.1930,-82.7890,0.504,1111122 
COMPS,ioos:station:USF.COMPS:ANC:1,2009-10-01T15:48:00Z,28.1930,-82.7890,0.498,1111122 
COMPS,ioos:station:USF.COMPS:ANC:1,2009-10-01T15:54:00Z,28.1930,-82.7890,0.49,1111122 
COMPS,ioos:station:USF.COMPS:ANC:1,2009-10-01T16:00:00Z,28.1930,-82.7890,0.479,1111122 
COMPS,ioos:station:USF.COMPS:ANC:1,2009-10-01T16:06:00Z,28.1930,-82.7890,0.47,1111122 
COMPS,ioos:station:USF.COMPS:ANC:1,2009-10-01T16:12:00Z,28.1930,-82.7890,0.46,1111122 
COMPS,ioos:station:USF.COMPS:ANC:1,2009-10-01T16:18:00Z,28.1930,-82.7890,0.455,1111122 
COMPS,ioos:station:USF.COMPS:ANC:1,2009-10-01T16:24:00Z,28.1930,-82.7890,0.454,1111122 
COMPS,ioos:station:USF.COMPS:ANC:1,2009-10-01T16:30:00Z,28.1930,-82.7890,0.439,1111122 
COMPS,ioos:station:USF.COMPS:ANC:1,2009-10-01T16:36:00Z,28.1930,-82.7890,0.417,1111122 
COMPS,ioos:station:USF.COMPS:ANC:1,2009-10-01T16:42:00Z,28.1930,-82.7890,0.383,1111122 
COMPS,ioos:station:USF.COMPS:ANC:1,2009-10-01T16:48:00Z,28.1930,-82.7890,0.385,1111122 
COMPS,ioos:station:USF.COMPS:ANC:1,2009-10-01T16:54:00Z,28.1930,-82.7890,0.379,1111122 
COMPS,ioos:station:USF.COMPS:ANC:1,2009-10-01T17:00:00Z,28.1930,-82.7890,0.37,1111122 
COMPS,ioos:station:USF.COMPS:ANC:1,2009-10-01T17:06:00Z,28.1930,-82.7890,0.358,1111122 
COMPS,ioos:station:USF.COMPS:ANC:1,2009-10-01T17:12:00Z,28.1930,-82.7890,0.341,1111122 
COMPS,ioos:station:USF.COMPS:ANC:1,2009-10-01T17:18:00Z,28.1930,-82.7890,0.323,1111122 
COMPS,ioos:station:USF.COMPS:ANC:1,2009-10-01T17:24:00Z,28.1930,-82.7890,0.312,1111122 
COMPS,ioos:station:USF.COMPS:ANC:1,2009-10-01T17:30:00Z,28.1930,-82.7890,0.3,1111122 
COMPS,ioos:station:USF.COMPS:ANC:1,2009-10-01T17:36:00Z,28.1930,-82.7890,0.284,1111122 
COMPS,ioos:station:USF.COMPS:ANC:1,2009-10-01T17:42:00Z,28.1930,-82.7890,0.272,1111122 
COMPS,ioos:station:USF.COMPS:ANC:1,2009-10-01T17:48:00Z,28.1930,-82.7890,0.25,1111122 
COMPS,ioos:station:USF.COMPS:ANC:1,2009-10-01T17:54:00Z,28.1930,-82.7890,0.227,1111122 
COMPS,ioos:station:USF.COMPS:ANC:1,2009-10-01T18:00:00Z,28.1930,-82.7890,0.207,1111122 
COMPS,ioos:station:USF.COMPS:ANC:1,2009-10-01T18:06:00Z,28.1930,-82.7890,0.188,1111122 
COMPS,ioos:station:USF.COMPS:ANC:1,2009-10-01T18:12:00Z,28.1930,-82.7890,0.167,1111122 
COMPS,ioos:station:USF.COMPS:ANC:1,2009-10-01T18:18:00Z,28.1930,-82.7890,0.152,1111122 
COMPS,ioos:station:USF.COMPS:ANC:1,2009-10-01T18:24:00Z,28.1930,-82.7890,0.132,1111122 
COMPS,ioos:station:USF.COMPS:ANC:1,2009-10-01T18:30:00Z,28.1930,-82.7890,0.113,1111122 
COMPS,ioos:station:USF.COMPS:ANC:1,2009-10-01T18:36:00Z,28.1930,-82.7890,0.098,1111122 
COMPS,ioos:station:USF.COMPS:ANC:1,2009-10-01T18:42:00Z,28.1930,-82.7890,0.081,1111122 
COMPS,ioos:station:USF.COMPS:ANC:1,2009-10-01T18:48:00Z,28.1930,-82.7890,0.059,1111122 
COMPS,ioos:station:USF.COMPS:ANC:1,2009-10-01T18:54:00Z,28.1930,-82.7890,0.038,1111122 
COMPS,ioos:station:USF.COMPS:ANC:1,2009-10-01T19:00:00Z,28.1930,-82.7890,0.023,1111122 
COMPS,ioos:station:USF.COMPS:ANC:1,2009-10-01T19:06:00Z,28.1930,-82.7890,0.006,1111122 
COMPS,ioos:station:USF.COMPS:ANC:1,2009-10-01T19:12:00Z,28.1930,-82.7890,-0.016,1111122 
COMPS,ioos:station:USF.COMPS:ANC:1,2009-10-01T19:18:00Z,28.1930,-82.7890,-0.031,1111122 
COMPS,ioos:station:USF.COMPS:ANC:1,2009-10-01T19:24:00Z,28.1930,-82.7890,-0.047,1111122 
COMPS,ioos:station:USF.COMPS:ANC:1,2009-10-01T19:30:00Z,28.1930,-82.7890,-0.063,1111122 
COMPS,ioos:station:USF.COMPS:ANC:1,2009-10-01T19:36:00Z,28.1930,-82.7890,-0.079,1111122 
COMPS,ioos:station:USF.COMPS:ANC:1,2009-10-01T19:42:00Z,28.1930,-82.7890,-0.094,1111122 
COMPS,ioos:station:USF.COMPS:ANC:1,2009-10-01T19:48:00Z,28.1930,-82.7890,-0.105,1111122 
COMPS,ioos:station:USF.COMPS:ANC:1,2009-10-01T19:54:00Z,28.1930,-82.7890,-0.119,1111122 
COMPS,ioos:station:USF.COMPS:ANC:1,2009-10-01T20:00:00Z,28.1930,-82.7890,-0.137,1111122 
COMPS,ioos:station:USF.COMPS:ANC:1,2009-10-01T20:06:00Z,28.1930,-82.7890,-0.148,1111122 
COMPS,ioos:station:USF.COMPS:ANC:1,2009-10-01T20:12:00Z,28.1930,-82.7890,-0.162,1111122 
COMPS,ioos:station:USF.COMPS:ANC:1,2009-10-01T20:18:00Z,28.1930,-82.7890,-0.181,1111122 
COMPS,ioos:station:USF.COMPS:ANC:1,2009-10-01T20:24:00Z,28.1930,-82.7890,-0.192,1111122 
COMPS,ioos:station:USF.COMPS:ANC:1,2009-10-01T20:30:00Z,28.1930,-82.7890,-0.2,1111122 
COMPS,ioos:station:USF.COMPS:ANC:1,2009-10-01T20:36:00Z,28.1930,-82.7890,-0.213,1111122 
COMPS,ioos:station:USF.COMPS:ANC:1,2009-10-01T20:42:00Z,28.1930,-82.7890,-0.224,1111122 
COMPS,ioos:station:USF.COMPS:ANC:1,2009-10-01T20:48:00Z,28.1930,-82.7890,-0.229,1111122 
COMPS,ioos:station:USF.COMPS:ANC:1,2009-10-01T20:54:00Z,28.1930,-82.7890,-0.233,1111122 
COMPS,ioos:station:USF.COMPS:ANC:1,2009-10-01T21:00:00Z,28.1930,-82.7890,-0.236,1111122 
COMPS,ioos:station:USF.COMPS:ANC:1,2009-10-01T21:06:00Z,28.1930,-82.7890,-0.237,1111122 
COMPS,ioos:station:USF.COMPS:ANC:1,2009-10-01T21:12:00Z,28.1930,-82.7890,-0.236,1111122 
COMPS,ioos:station:USF.COMPS:ANC:1,2009-10-01T21:18:00Z,28.1930,-82.7890,-0.236,1111122 
COMPS,ioos:station:USF.COMPS:ANC:1,2009-10-01T21:24:00Z,28.1930,-82.7890,-0.237,1111122 
COMPS,ioos:station:USF.COMPS:ANC:1,2009-10-01T21:30:00Z,28.1930,-82.7890,-0.24,1111122 
COMPS,ioos:station:USF.COMPS:ANC:1,2009-10-01T21:36:00Z,28.1930,-82.7890,-0.246,1111122 
COMPS,ioos:station:USF.COMPS:ANC:1,2009-10-01T21:42:00Z,28.1930,-82.7890,-0.254,1111122 
COMPS,ioos:station:USF.COMPS:ANC:1,2009-10-01T21:48:00Z,28.1930,-82.7890,-0.263,1111122 
COMPS,ioos:station:USF.COMPS:ANC:1,2009-10-01T21:54:00Z,28.1930,-82.7890,-0.259,1111122 
COMPS,ioos:station:USF.COMPS:ANC:1,2009-10-01T22:00:00Z,28.1930,-82.7890,-0.253,1111122 
COMPS,ioos:station:USF.COMPS:ANC:1,2009-10-01T22:06:00Z,28.1930,-82.7890,-0.254,1111122 
COMPS,ioos:station:USF.COMPS:ANC:1,2009-10-01T22:12:00Z,28.1930,-82.7890,-0.252,1111122 
COMPS,ioos:station:USF.COMPS:ANC:1,2009-10-01T22:18:00Z,28.1930,-82.7890,-0.253,1111122 
COMPS,ioos:station:USF.COMPS:ANC:1,2009-10-01T22:24:00Z,28.1930,-82.7890,-0.252,1111122 
COMPS,ioos:station:USF.COMPS:ANC:1,2009-10-01T22:30:00Z,28.1930,-82.7890,-0.243,1111122 
COMPS,ioos:station:USF.COMPS:ANC:1,2009-10-01T22:36:00Z,28.1930,-82.7890,-0.233,1111122 
COMPS,ioos:station:USF.COMPS:ANC:1,2009-10-01T22:42:00Z,28.1930,-82.7890,-0.216,1111122 
COMPS,ioos:station:USF.COMPS:ANC:1,2009-10-01T22:48:00Z,28.1930,-82.7890,-0.2,1111122 
COMPS,ioos:station:USF.COMPS:ANC:1,2009-10-01T22:54:00Z,28.1930,-82.7890,-0.184,1111122 
COMPS,ioos:station:USF.COMPS:ANC:1,2009-10-01T23:00:00Z,28.1930,-82.7890,-0.17,1111122 
COMPS,ioos:station:USF.COMPS:ANC:1,2009-10-01T23:06:00Z,28.1930,-82.7890,-0.152,1111122 
COMPS,ioos:station:USF.COMPS:ANC:1,2009-10-01T23:12:00Z,28.1930,-82.7890,-0.138,1111122 
COMPS,ioos:station:USF.COMPS:ANC:1,2009-10-01T23:18:00Z,28.1930,-82.7890,-0.118,1111122 
COMPS,ioos:station:USF.COMPS:ANC:1,2009-10-01T23:24:00Z,28.1930,-82.7890,-0.102,1111122 
COMPS,ioos:station:USF.COMPS:ANC:1,2009-10-01T23:30:00Z,28.1930,-82.7890,-0.081,1111122 
COMPS,ioos:station:USF.COMPS:ANC:1,2009-10-01T23:36:00Z,28.1930,-82.7890,-0.064,1111122 
COMPS,ioos:station:USF.COMPS:ANC:1,2009-10-01T23:42:00Z,28.1930,-82.7890,-0.051,1111122 
COMPS,ioos:station:USF.COMPS:ANC:1,2009-10-01T23:48:00Z,28.1930,-82.7890,-0.031,1111122 
COMPS,ioos:station:USF.COMPS:ANC:1,2009-10-01T23:54:00Z,28.1930,-82.7890,-0.013,1111122 
COMPS,ioos:station:USF.COMPS:ANC:1,2009-10-02T00:00:00Z,28.1930,-82.7890,-0.002,1111122 
COMPS,ioos:station:USF.COMPS:ANC:1,2009-10-02T00:06:00Z,28.1930,-82.7890,0.008,1111122 
COMPS,ioos:station:USF.COMPS:ANC:1,2009-10-02T00:12:00Z,28.1930,-82.7890,0.023,1111122 
COMPS,ioos:station:USF.COMPS:ANC:1,2009-10-02T00:18:00Z,28.1930,-82.7890,0.033,1111122 
COMPS,ioos:station:USF.COMPS:ANC:1,2009-10-02T00:24:00Z,28.1930,-82.7890,0.041,1111122 
COMPS,ioos:station:USF.COMPS:ANC:1,2009-10-02T00:30:00Z,28.1930,-82.7890,0.058,1111122 
COMPS,ioos:station:USF.COMPS:ANC:1,2009-10-02T00:36:00Z,28.1930,-82.7890,0.077,1111122 
COMPS,ioos:station:USF.COMPS:ANC:1,2009-10-02T00:42:00Z,28.1930,-82.7890,0.093,1111122 
COMPS,ioos:station:USF.COMPS:ANC:1,2009-10-02T00:48:00Z,28.1930,-82.7890,0.114,1111122 
COMPS,ioos:station:USF.COMPS:ANC:1,2009-10-02T00:54:00Z,28.1930,-82.7890,0.134,1111122 
COMPS,ioos:station:USF.COMPS:ANC:1,2009-10-02T01:00:00Z,28.1930,-82.7890,0.147,1111122 
COMPS,ioos:station:USF.COMPS:ANC:1,2009-10-02T01:06:00Z,28.1930,-82.7890,0.156,1111122 
COMPS,ioos:station:USF.COMPS:ANC:1,2009-10-02T01:12:00Z,28.1930,-82.7890,0.172,1111122 
COMPS,ioos:station:USF.COMPS:ANC:1,2009-10-02T01:18:00Z,28.1930,-82.7890,0.192,1111122 
COMPS,ioos:station:USF.COMPS:ANC:1,2009-10-02T01:24:00Z,28.1930,-82.7890,0.211,1111122 
COMPS,ioos:station:USF.COMPS:ANC:1,2009-10-02T01:30:00Z,28.1930,-82.7890,0.22,1111122 
COMPS,ioos:station:USF.COMPS:ANC:1,2009-10-02T01:36:00Z,28.1930,-82.7890,0.227,1111122 
COMPS,ioos:station:USF.COMPS:ANC:1,2009-10-02T01:42:00Z,28.1930,-82.7890,0.242,1111122 
COMPS,ioos:station:USF.COMPS:ANC:1,2009-10-02T01:48:00Z,28.1930,-82.7890,0.259,1111122 
COMPS,ioos:station:USF.COMPS:ANC:1,2009-10-02T01:54:00Z,28.1930,-82.7890,0.28,1111122 
COMPS,ioos:station:USF.COMPS:ANC:1,2009-10-02T02:00:00Z,28.1930,-82.7890,0.305,1111122 
COMPS,ioos:station:USF.COMPS:ANC:1,2009-10-02T02:06:00Z,28.1930,-82.7890,0.321,1111122 
COMPS,ioos:station:USF.COMPS:ANC:1,2009-10-02T02:12:00Z,28.1930,-82.7890,0.333,1111122 
COMPS,ioos:station:USF.COMPS:ANC:1,2009-10-02T02:18:00Z,28.1930,-82.7890,0.347,1111122 
COMPS,ioos:station:USF.COMPS:ANC:1,2009-10-02T02:24:00Z,28.1930,-82.7890,0.355,1111122 
COMPS,ioos:station:USF.COMPS:ANC:1,2009-10-02T02:30:00Z,28.1930,-82.7890,0.363,1111122 
COMPS,ioos:station:USF.COMPS:ANC:1,2009-10-02T02:36:00Z,28.1930,-82.7890,0.372,1111122 
COMPS,ioos:station:USF.COMPS:ANC:1,2009-10-02T02:42:00Z,28.1930,-82.7890,0.383,1111122 
COMPS,ioos:station:USF.COMPS:ANC:1,2009-10-02T02:48:00Z,28.1930,-82.7890,0.393,1111122 
COMPS,ioos:station:USF.COMPS:ANC:1,2009-10-02T02:54:00Z,28.1930,-82.7890,0.396,1111122 
COMPS,ioos:station:USF.COMPS:ANC:1,2009-10-02T03:00:00Z,28.1930,-82.7890,0.402,1111122 